Regional Weather Roundup
Issued by NWS

Home | Current Version | Previous Version | Graphics & Text | Print | Product List | Glossary On
Versions: 1 2 3 4 5 6 7 8 9 10 11 12 13 14 15 16 17 18 19 20 21 22 23 24 25 26 27 28 29 30 31 32 33 34 35 36 37 38 39 40 41 42 43 44 45 46 47 48 49 50
000
ASUS43 KMPX 302101
RWRMN
WEATHER ROUNDUP FOR MINNESOTA
NATIONAL WEATHER SERVICE TWIN CITIES/CHANHASSEN MN
400 PM CDT SUN AUG 30 2015


NOTE: "FAIR" INDICATES FEW OR NO CLOUDS BELOW 12,000 FEET WITH NO
SIGNIFICANT WEATHER AND/OR OBSTRUCTIONS TO VISIBILITY. N/A MEANS
CURRENT SKY AND/OR WEATHER CONDITIONS ARE NOT AVAILABLE.

MNZ060>063-068>070-302200-
   Twin Cities Metro

CITY           SKY/WX    TMP DP  RH WIND       PRES   REMARKS
TWIN CITIES    MOSUNNY   81  63  54 S13       29.94F
ST PAUL        SUNNY     80  68  66 S10       29.94F
CRYSTAL        SUNNY     82  63  52 S12       29.92F
BLAINE         SUNNY     82  64  54 S12       29.92F
LAKEVILLE      SUNNY     77  66  69 S7        29.95F
EDEN PRAIRIE   SUNNY     80  65  59 S14       29.93F
SOUTH ST PAUL  SUNNY     80  65  59 SE9       29.94S
LAKE ELMO      FAIR      79  68  69 S12       29.96F
$$
MNZ001>005-007-008-013>017-022>024-027-028-302200-
   Northwest Minnesota

CITY           SKY/WX    TMP DP  RH WIND       PRES   REMARKS
BEMIDJI        MOSUNNY   83  68  60 S14G20    29.81F
HALLOCK        MOSUNNY   88  68  51 S18G24    29.67F HX  91
ROSEAU         PTSUNNY   88  73  62 S12       29.73S HX  96
WARROAD        MOSUNNY   86  75  70 SE9       29.73F HX  95
THIEF RVR FALL MOSUNNY  N/A N/A N/A S14       29.73F
CROOKSTON      SUNNY     86  66  51 S16G25    29.72F
FOSSTON        SUNNY     88  66  48 S13       29.78F HX  90
DETROIT LAKES  SUNNY     82  64  54 S15       29.83S
MOORHEAD       SUNNY     86  66  51 S17G23    29.76F
PARK RAPIDS    SUNNY     84  67  56 S16       29.84F
MAHNOMEN       FAIR      85  67  55 S12G17    29.78F
$$
MNZ006-009>011-018-025>026-302200-
   North Central Minnesota

CITY           SKY/WX    TMP DP  RH WIND       PRES   REMARKS
BAUDETTE       MOSUNNY   84  68  58 S9        29.76F
FLAG ISLAND    MOSUNNY   75  66  73 SE12      29.73F
INTL FALLS     MOSUNNY   83  70  64 VRB5      29.80F
WASKISH        MOSUNNY   82  72  69 SE5       29.79F
BIG FORK       PTSUNNY   81  70  69 S5        29.83F
LONGVILLE      MOSUNNY   79  66  65 S10       29.85F
GRAND RAPIDS     N/A     81  66  61 S14       29.86S
CRANE LAKE     MOSUNNY   81  70  69 VRB3      29.84F
ORR            MOSUNNY   82  64  54 CALM      29.82S
COOK           MOSUNNY   81  70  69 S5        29.85F
WALKER         FAIR      81  69  65 S12       29.83F
$$
MNZ012-019>021-037-302200-
   Northeast Minnesota

CITY           SKY/WX    TMP DP  RH WIND       PRES   REMARKS
DULUTH         SUNNY     80  66  62 SW13      29.89F
ELY            MOSUNNY   82  64  54 SW12      29.86S
HIBBING        MOSUNNY   83  65  54 VRB7      29.86F
EVELETH        MOSUNNY   81  66  61 S8        29.88S
DULUTH HARBOR  SUNNY     82  70  65 S12       29.86S
TWO HARBORS    SUNNY     82  70  65 SW10      29.86S
SILVER BAY     SUNNY     81  66  61 S9        29.85S
GRAND MARAIS     N/A     60  55  83 W6        29.84F
$$
MNZ029>031-032-039>041-046>048-054>057-064-302200-
   West Central Minnesota

CITY           SKY/WX    TMP DP  RH WIND       PRES   REMARKS
FERGUS FALLS   SUNNY     82  70  65 S15       29.81F
WHEATON        SUNNY     81  68  65 SE13G20   29.82F
MORRIS         SUNNY     82  70  65 S17       29.85S
ALEXANDRIA     MOSUNNY   81  68  64 S14       29.89F
ELBOW LAKE     FAIR      80  69  68 S17       29.84F
WADENA         MOSUNNY   81  66  61 S10G17    29.85F
GLENWOOD       MOSUNNY   81  68  65 S17       29.90S
APPLETON       SUNNY     82  66  57 S10G17    29.85F
BENSON         SUNNY     81  66  61 S12       29.87F
ORTONVILLE     SUNNY     84  66  54 SE10G16   29.84F
MADISON        SUNNY     82  68  61 S10       29.86S
WILLMAR        FAIR      82  70  65 S5        29.90F
$$
MNZ033>034-036-042>043-049>051-058-059-302200-
   Central Minnesota

CITY           SKY/WX    TMP DP  RH WIND       PRES   REMARKS
ST CLOUD       SUNNY     79  66  64 S13       29.90F
SAUK CENTRE    FAIR      80  67  66 SE12      29.89F
PAYNESVILLE    SUNNY     80  66  62 E10       29.91S
AITKIN         MOSUNNY   79  68  69 S8        29.87F
PINE RIVER     SUNNY     79  68  69 S8        29.90S
BRAINERD       SUNNY     79  66  64 S15       29.88F
STAPLES        SUNNY     81  66  61 S9        29.87S
LONG PRAIRIE   FAIR      79  66  65 S13G20    29.90S
LITTLE FALLS   SUNNY     79  63  57 S8G16     29.90S
LITCHFIELD     SUNNY     81  68  65 S7        29.92F
BUFFALO        SUNNY     80  64  59 SE8       29.93F
MAPLE LAKE     SUNNY     80  68  68 S8        29.92F
$$
MNZ037-044-045-052-053-302200-
   East Central Minnesota

CITY           SKY/WX    TMP DP  RH WIND       PRES   REMARKS
PRINCETON      SUNNY     81  64  57 S10       29.91F
MORA           SUNNY     77  61  57 S12       29.92F
CAMBRIDGE      SUNNY     82  64  54 S12       29.90F
RUSH CITY      SUNNY     78  65  64 S9        29.92F
MOOSE LAKE     SUNNY     79  64  61 S9G16     29.88F
HINCKLEY       FAIR      79  66  65 S8        29.91F
CLOQUET        SUNNY     81  64  57 SW9       29.89F
MCGREGOR       SUNNY     79  66  65 S9        29.89S
$$
MNZ071>073-080-081-089-090-097-098-302200-
   Southwest Minnesota

CITY           SKY/WX    TMP DP  RH WIND       PRES   REMARKS
MONTEVIDEO     SUNNY     82  68  61 SW13G20   29.89F
GRANITE FALLS  SUNNY     81  69  67 S10       29.90F
CANBY          SUNNY     84  65  52 S10       29.88F
MARSHALL       SUNNY     81  64  57 S14       29.91F
REDWOOD FALLS  SUNNY     83  64  52 S12       29.90F
OLIVIA         SUNNY     81  64  57 S10       29.90F
PIPESTONE      SUNNY     75  64  69 S12       29.94F
WINDOM         SUNNY     79  63  57 S10G17    29.95F
WORTHINGTON    SUNNY     75  64  69 S12       29.96F
JACKSON        SUNNY     77  68  73 S14       29.97F
TRACY          SUNNY     80  68  66 S10G20    29.92F
SLAYTON        SUNNY     78  65  65 S16       29.95F
$$
MNZ065>067-074>077-082>085-091>093-302200-
   South Central Minnesota

CITY           SKY/WX    TMP DP  RH WIND       PRES   REMARKS
MANKATO        SUNNY     75  64  69 S12G21    29.96S
NEW ULM        SUNNY     79  66  65 S14       29.93F
ST JAMES       SUNNY     79  68  69 S13G18    29.95F
FAIRMONT         N/A    N/A N/A N/A MISG        N/A
GLENCOE        SUNNY     81  68  66 S7        29.93F
FARIBAULT      SUNNY     77  66  69 S14       29.97F
OWATONNA       SUNNY     75  64  69 S9G17     29.98F
WASECA         SUNNY     77  64  65 S13       29.99F
ALBERT LEA     SUNNY     75  66  73 S12G17    29.99F
$$
MNZ078>079-086>088-094>096-302200-
   Southeast Minnesota

CITY           SKY/WX    TMP DP  RH WIND       PRES   REMARKS
ROCHESTER      MOSUNNY   72  65  78 S15       30.01F
RED WING       SUNNY     79  63  57 S12       29.96S
STANTON        SUNNY     78  65  63 S9        29.95F
DODGE CENTER   SUNNY     73  66  78 S14G20    30.00F
WINONA         MOSUNNY   73  63  68 S5        30.01S
PRESTON        PTSUNNY   72  63  73 SW9       30.04S
$$
ABBREVIATIONS USED IN REMARKS
   TC - TEMPERATURES IN CELSIUS
  WCI - WIND CHILL INDEX
   HX - HEAT INDEX
  VSB - VISIBILITY
$$



USA.gov is the U.S. government's official web portal to all federal, state and local government web resources and services.